This demonstration page uses our WeatherBlox Daily Observations layout. Learn more.

Hourly Observations for March 1, 2016

Temp ( °F °C ) Dew Point ( °F °C ) Humidity (%) Winds ( mph kmh ) Pressure ( in mb ) Visibility ( mi km ) Precip ( " mm )
12:15 am 00:15 Partly Cloudy 25 -3.8 21 -6.1 84 84 N 13 20 30.18 1022 10 16.0934 0 0
12:35 am 00:35 Partly Cloudy 24 -4.7 19 -7.1 84 84 N 12 19 30.21 1023 10 16.0934 0 0
12:55 am 00:55 Partly Cloudy 24 -4.7 20 -6.5 87 87 N 8 13 30.21 1023 10 16.0934 0 0
1:15 am 01:15 Mostly Cloudy 22 -5.5 19 -7.1 89 89 N 6 9 30.21 1023 10 16.0934 0 0
1:35 am 01:35 Cloudy 24 -4.6 21 -6.2 89 89 N 9 15 30.18 1022 10 16.0934 0 0
1:55 am 01:55 Cloudy 24 -4.5 21 -6.1 89 89 N 6 9 30.21 1023 10 16.0934 0 0
2:15 am 02:15 Cloudy 23 -4.8 21 -6.2 90 90 N 3 6 30.21 1023 10 16.0934 0 0
2:35 am 02:35 Mostly Cloudy 23 -5.2 20 -6.8 89 89 Calm 30.21 1023 10 16.0934 0 0
2:55 am 02:55 Partly Cloudy 22 -5.7 19 -7.5 87 87 Calm 30.24 1024 10 16.0934 0 0
3:15 am 03:15 Clear 20 -6.6 17 -8.2 89 89 Calm 30.21 1023 10 16.0934 0 0
3:35 am 03:35 Clear 21 -6.3 18 -7.6 91 91 Calm 30.18 1022 10 16.0934 0 0
3:55 am 03:55 Clear 22 -5.8 19 -7 91 91 Calm 30.18 1022 10 16.0934 0 0
4:15 am 04:15 Clear 19 -7 17 -8.1 92 92 NW 3 6 30.24 1024 10 16.0934 0 0
4:35 am 04:35 Partly Cloudy 20 -6.8 18 -7.6 94 94 N 6 9 30.24 1024 10 16.0934 0 0
4:55 am 04:55 Cloudy with Mist and Fog 22 -5.6 21 -6.3 95 95 N 5 7 30.24 1024 4 6.43736 0 0
5:15 am 05:15 Cloudy with Mist and Fog 24 -4.5 23 -5.2 95 95 NNW 3 6 30.21 1023 1.5 2.41401 0 0
5:35 am 05:35 Cloudy 24 -4.3 23 -5 95 95 Calm 30.21 1023 7 11.26538 0 0
5:55 am 05:55 Cloudy 24 -4.5 23 -5.1 96 96 NNW 3 6 30.24 1024 7 11.26538 0 0
6:15 am 06:15 Mostly Cloudy 23 -4.9 22 -5.7 94 94 NW 3 6 30.24 1024 7 11.26538 0 0
6:35 am 06:35 Partly Cloudy 22 -5.6 20 -6.4 94 94 WNW 3 6 30.27 1025 7 11.26538 0 0
6:55 am 06:55 Clear 22 -5.5 21 -6.3 94 94 NW 3 6 30.24 1024 10 16.0934 0 0
7:15 am 07:15 Sunny 20 -6.6 19 -7.5 93 93 WNW 3 6 30.27 1025 10 16.0934 0 0
7:35 am 07:35 Sunny 20 -6.8 18 -7.8 93 93 Calm 30.3 1026 10 16.0934 0 0
7:55 am 07:55 Sunny 21 -5.9 20 -6.9 93 93 Calm 30.3 1026 10 16.0934 0 0
8:15 am 08:15 Partly Cloudy 24 -4.7 22 -5.5 94 94 Calm 30.27 1025 10 16.0934 0 0
8:35 am 08:35 Sunny 27 -3 25 -3.8 94 94 NNW 6 9 30.27 1025 10 16.0934 0 0
8:55 am 08:55 Sunny 29 -1.8 25 -4 85 85 N 7 11 30.24 1024 10 16.0934 0 0
9:15 am 09:15 Partly Cloudy 29 -1.7 24 -4.4 82 82 N 7 11 30.27 1025 10 16.0934 0 0
9:35 am 09:35 Cloudy 29 -1.8 24 -4.5 82 82 N 8 13 30.27 1025 10 16.0934 0 0
9:55 am 09:55 Mostly Cloudy 30 -0.9 25 -4 80 80 NNW 7 11 30.27 1025 10 16.0934 0 0
10:15 am 10:15 Partly Cloudy 32 0.1 26 -3.4 78 78 N 8 13 30.27 1025 10 16.0934 0 0
10:35 am 10:35 Sunny 34 0.9 26 -3.3 74 74 NNW 10 17 30.27 1025 10 16.0934 0 0
10:55 am 10:55 Sunny 36 2.4 27 -3 68 68 NNW 9 15 30.24 1024 10 16.0934 0 0
11:15 am 11:15 Sunny 38 3.6 27 -2.8 63 63 NNW 15 24 30.24 1024 10 16.0934 0 0
11:35 am 11:35 Sunny 40 4.5 26 -3.2 58 58 N 13 20 30.21 1023 10 16.0934 0 0
11:55 am 11:55 Sunny 41 5.2 27 -3 56 56 NNW 9 15 30.21 1023 10 16.0934 0 0
12:15 pm 12:15 Sunny 43 6 26 -3.1 52 52 NNW 8 13 30.18 1022 10 16.0934 0 0
12:35 pm 12:35 Sunny 44 6.9 27 -2.9 50 50 NNW 8 13 30.18 1022 10 16.0934 0 0
12:55 pm 12:55 Partly Cloudy 46 7.5 26 -3.2 47 47 NNW 7 11 30.15 1021 10 16.0934 0 0
1:15 pm 13:15 Sunny 46 8 26 -3.4 45 45 NNW 10 17 30.15 1021 10 16.0934 0 0
1:35 pm 13:35 Sunny 47 8.4 26 -3.6 43 43 NW 12 19 30.15 1021 10 16.0934 0 0
1:55 pm 13:55 Sunny 48 9.1 26 -3.2 42 42 NNW 12 19 30.15 1021 10 16.0934 0 0
2:15 pm 14:15 Sunny 49 9.3 26 -3.4 41 41 NW 13 20 30.15 1021 10 16.0934 0 0
2:35 pm 14:35 Partly Cloudy 50 10.1 25 -3.8 38 38 WNW 9 15 30.12 1020 10 16.0934 0 0
2:55 pm 14:55 Sunny 51 10.3 25 -4.1 36 36 NNW 7 11 30.12 1020 10 16.0934 0 0
3:15 pm 15:15 Sunny 51 10.7 25 -4.1 35 35 NW 9 15 30.09 1019 10 16.0934 0 0
3:35 pm 15:35 Sunny 52 11.1 24 -4.3 34 34 NNW 9 15 30.06 1018 10 16.0934 0 0
3:55 pm 15:55 Sunny 52 11.2 24 -4.5 33 33 NW 9 15 30.06 1018 10 16.0934 0 0
4:15 pm 16:15 Sunny 52 11 24 -4.6 33 33 W 6 9 30.06 1018 10 16.0934 0 0
4:35 pm 16:35 Sunny 52 11.3 23 -4.8 32 32 W 6 9 30.06 1018 10 16.0934 0 0
4:55 pm 16:55 Sunny 52 11 23 -5 32 32 Calm 30.06 1018 10 16.0934 0 0
5:15 pm 17:15 Sunny 51 10.6 23 -5.1 33 33 Calm 30.06 1018 10 16.0934 0 0
5:35 pm 17:35 Sunny 51 10.6 23 -4.9 34 34 Calm 30.06 1018 10 16.0934 0 0
5:55 pm 17:55 Sunny 48 9.1 29 -1.5 48 48 NE 10 17 29.8 1009 10 16.0934 0 0
6:15 pm 18:15 Sunny 48 8.7 25 -4.1 41 41 E 6 9 30.09 1019 10 16.0934 0 0
6:35 pm 18:35 Clear 43 6.3 24 -4.6 46 46 E 6 9 30.12 1020 10 16.0934 0 0
6:55 pm 18:55 Clear 40 4.7 24 -4.5 52 52 ESE 8 13 30.12 1020 10 16.0934 0 0
7:15 pm 19:15 Clear 38 3.4 24 -4.6 56 56 Calm 30.15 1021 10 16.0934 0 0
7:35 pm 19:35 Clear 37 2.9 23 -5 56 56 ESE 7 11 30.15 1021 10 16.0934 0 0
7:55 pm 19:55 Clear 34 1.1 23 -5.2 63 63 E 6 9 30.15 1021 10 16.0934 0 0
8:15 pm 20:15 Clear 35 1.4 23 -5 63 63 E 5 7 30.18 1022 10 16.0934 0 0
8:35 pm 20:35 Clear 35 1.8 23 -5 61 61 ESE 6 9 30.18 1022 10 16.0934 0 0
8:55 pm 20:55 Clear 35 1.4 24 -4.5 65 65 ESE 7 11 30.15 1021 10 16.0934 0 0
9:15 pm 21:15 Clear 33 0.7 24 -4.2 70 70 ESE 9 15 30.15 1021 10 16.0934 0 0
9:35 pm 21:35 Clear 33 0.4 24 -4.4 71 71 ESE 10 17 30.18 1022 10 16.0934 0 0
9:55 pm 21:55 Clear 33 0.3 24 -4.4 71 71 ESE 10 17 30.18 1022 10 16.0934 0 0
10:15 pm 22:15 Mostly Cloudy 34 0.9 25 -3.9 71 71 ESE 8 13 30.15 1021 10 16.0934 0 0
10:35 pm 22:35 Cloudy 37 2.5 26 -3.5 65 65 SE 10 17 30.15 1021 10 16.0934 0 0
10:55 pm 22:55 Cloudy 37 2.5 25 -3.7 64 64 SE 12 19 30.09 1019 10 16.0934 0 0
11:15 pm 23:15 Cloudy 36 2.2 25 -3.9 64 64 SE 10 17 30.12 1020 10 16.0934 0 0
11:55 pm 23:55 Partly Cloudy 34 1.1 25 -4 69 69 SE 10 17 30.12 1020 10 16.0934 0 0

Powered by AerisWeather